This is the latest recevied weather packets stored in our database for station/object JF7BTK-10. If no packets are shown the sender has not sent any weather packets the latest 10 day(s).
| Time | Temp. | Humidity | Pressure | Rain* | Wind** | Luminosity | Snow |
|---|---|---|---|---|---|---|---|
| 1788476289 | 23.33° C | 80% | 1005.5 hPa | 0 mm | - | - | - |
| 1788476153 | 23.33° C | 81% | 1005.3 hPa | 0 mm | - | - | - |
| 1788475853 | 22.22° C | 81% | 1005.4 hPa | 0 mm | - | - | - |
| 1788475552 | 22.22° C | 83% | 1005.4 hPa | 0 mm | - | - | - |
| 1788475388 | 21.67° C | 83% | 1005.5 hPa | 0 mm | - | - | - |
| 1788474487 | 23.89° C | 75% | 1005.3 hPa | 0 mm | - | - | - |
| 1788473751 | 22.78° C | 77% | 1005.1 hPa | 0 mm | - | - | - |
| 1788473588 | 22.78° C | 78% | 1005.2 hPa | 0 mm | - | - | - |
| 1788473452 | 22.78° C | 78% | 1005.3 hPa | 0 mm | - | - | - |
| 1788472689 | 22.78° C | 80% | 1005.4 hPa | 0 mm | - | - | - |
| 1788472251 | 21.67° C | 84% | 1005.3 hPa | 0 mm | - | - | - |
| 1788471951 | 21.67° C | 84% | 1005.4 hPa | 0 mm | - | - | - |
| 1788471813 | 21.67° C | 84% | 1005.4 hPa | 0 mm | - | - | - |
| 1788471652 | 21.67° C | 84% | 1005.4 hPa | 0 mm | - | - | - |
| 1788471351 | 21.67° C | 85% | 1005.2 hPa | 0 mm | - | - | - |
| 1788471052 | 21.11° C | 85% | 1005.1 hPa | 0 mm | - | - | - |
| 1788470889 | 21.11° C | 85% | 1005.1 hPa | 0 mm | - | - | - |
| 1788470451 | 20.56° C | 84% | 1005.1 hPa | 0 mm | - | - | - |
| 1788470151 | 20.56° C | 83% | 1004.9 hPa | 0 mm | - | - | - |
| 1788469987 | 21.11° C | 84% | 1005 hPa | 0 mm | - | - | - |
| 1788469851 | 21.11° C | 84% | 1004.9 hPa | 0 mm | - | - | - |
| 1788469552 | 21.11° C | 86% | 1004.9 hPa | 0 mm | - | - | - |
| 1788469253 | 21.11° C | 87% | 1004.8 hPa | 0 mm | - | - | - |
| 1788469089 | 20.56° C | 88% | 1004.7 hPa | 0 mm | - | - | - |
| 1788468351 | 20° C | 87% | 1004.6 hPa | 0 mm | - | - | - |
* Rain latest hour (hover to see other rain measurements)
** Current wind speed in m/s (hover to see current wind gust speed)